1509440401.1,9989,6.81,72808.0,-11.47,-14.47,-14.47,0,*52
1509440402.36,9990,6.81,72806.8,-11.47,-14.51,-14.33,0,*5E
1509440403.63,9991,6.81,72726.3,-11.45,-14.47,-14.47,0,*59
1509440404.84,9992,6.81,72720.5,-11.45,-14.61,-14.33,0,*5D
1509440406.08,9993,6.81,72734.3,-11.45,-14.11,-14.01,0,*5A
1509440407.31,9994,6.81,72786.3,-11.45,-14.89,-14.75,0,*5F
1509440408.56,9995,6.81,72774.3,-11.45,-14.97,-14.83,0,*58
1509440409.77,9996,6.81,72794.0,-11.45,-15.15,-14.89,0,*5A
1509440411.0,9997,6.81,72802.8,-11.45,-14.97,-14.89,0,*50
1509440412.23,9998,6.81,72812.3,-11.45,-14.97,-14.89,0,*5F
1509440413.49,9999,6.81,72818.0,-11.47,-15.15,-15.01,0,*56
1509440414.78,10000,6.81,72812.5,-11.43,-14.83,-14.55,0,*6D
1509440416.05,10001,6.81,72830.3,-11.47,-14.89,-14.79,0,*6C
1509440417.28,10002,6.81,72834.0,-11.45,-14.75,-14.61,0,*67
1509440418.49,10003,6.81,72818.0,-11.45,-14.29,-14.11,0,*68
1509440419.73,10004,6.81,72806.8,-11.45,-14.43,-14.15,0,*67
1509440420.98,10005,6.81,72806.5,-11.45,-14.47,-14.15,0,*62
1509440422.25,10006,6.81,72800.8,-11.45,-14.47,-14.47,0,*66
1509440423.47,10007,6.81,72798.0,-11.45,-14.61,-14.33,0,*60
1509440424.74,10008,6.81,72808.3,-11.45,-14.55,-14.47,0,*6B
1509440426.01,10009,6.81,72808.0,-11.45,-14.55,-14.47,0,*6A
1509440427.24,10010,6.81,72780.8,-11.45,-14.43,-14.19,0,*6E
1509440428.47,10011,6.81,72804.0,-11.45,-14.69,-14.43,0,*68
1509440429.74,10012,6.81,72810.3,-11.43,-14.47,-14.19,0,*6E
1509440431.0,10013,6.81,72794.5,-11.43,-14.43,-14.29,0,*68
1509440432.25,10014,6.81,72752.8,-11.43,-14.69,-14.55,0,*6C
1509440433.51,10015,6.81,72756.3,-11.41,-14.51,-14.43,0,*63
1509440434.76,10016,6.81,72768.5,-11.43,-15.29,-15.29,0,*61
1509440436.0,10017,6.81,72778.3,-11.43,-15.63,-15.71,0,*63
1509440437.27,10018,6.81,72792.5,-11.45,-15.43,-15.43,0,*69
1509440438.54,10019,6.81,72818.8,-11.43,-14.97,-14.75,0,*62
1509440439.78,10020,6.81,72814.0,-11.43,-14.89,-14.61,0,*62
1509440441.01,10021,6.81,72740.8,-11.45,-14.61,-14.43,0,*63
1509440442.29,10022,6.81,72754.0,-11.43,-15.01,-14.97,0,*68
1509440443.57,10023,6.81,72796.5,-11.43,-15.01,-14.83,0,*6C
1509440444.84,10024,6.81,72730.8,-11.43,-14.55,-14.29,0,*6B
1509440446.07,10025,6.81,72706.5,-11.43,-14.33,-14.11,0,*61
1509440447.35,10026,6.81,72712.5,-11.43,-14.97,-14.83,0,*67
1509440448.62,10027,6.81,72722.0,-11.43,-14.47,-14.15,0,*64
1509440449.87,10028,6.81,72712.5,-11.41,-14.23,-13.97,0,*66
1509440451.14,10029,6.81,72714.5,-11.43,-14.11,-13.97,0,*64
1509440452.34,10030,6.81,72724.0,-11.41,-14.29,-14.11,0,*6C
1509440453.56,10031,6.81,72700.3,-11.41,-14.37,-14.15,0,*66
1509440454.81,10032,6.81,72726.0,-11.41,-14.93,-14.79,0,*61
1509440456.06,10033,6.81,72718.8,-11.41,-14.15,-13.97,0,*69
1509440457.31,10034,6.81,72720.5,-11.41,-14.15,-13.97,0,*6E
1509440458.52,10035,6.81,72726.3,-11.41,-14.37,-14.15,0,*62
1509440459.76,10036,6.81,72692.5,-11.41,-14.43,-14.15,0,*62
1509440461.04,10037,6.81,72740.8,-11.37,-14.47,-14.19,0,*6A
1509440462.31,10038,6.81,72752.8,-11.37,-14.05,-13.73,0,*68
1509440463.56,10039,6.81,72722.5,-11.39,-14.23,-14.05,0,*65
1509440464.81,10040,6.81,72726.8,-11.37,-14.19,-13.93,0,*64
1509440466.05,10041,6.81,72730.3,-11.37,-14.37,-14.19,0,*6C
1509440467.33,10042,6.81,72752.3,-11.37,-14.47,-14.19,0,*68
1509440468.6,10043,6.81,72726.8,-11.37,-14.51,-14.33,0,*66
1509440469.82,10044,6.81,72762.0,-11.39,-14.65,-14.37,0,*6C
1509440471.06,10045,6.81,72772.0,-11.37,-14.19,-13.93,0,*61
1509440472.34,10046,6.81,72802.5,-11.37,-14.19,-14.01,0,*6E
1509440473.58,10047,6.81,72812.8,-11.37,-14.33,-14.11,0,*66
1509440474.85,10048,6.81,72788.5,-11.37,-14.23,-14.01,0,*69
1509440476.11,10049,6.81,72740.5,-11.35,-14.47,-14.23,0,*68
1509440477.37,10050,6.81,72756.3,-11.37,-14.75,-14.61,0,*65
1509440478.65,10051,6.81,72756.0,-11.37,-15.39,-15.25,0,*6C
1509440479.93,10052,6.81,72728.8,-11.37,-14.75,-14.43,0,*67
1509440481.23,10053,6.81,72758.8,-11.37,-14.75,-14.47,0,*62
1509440482.52,10054,6.81,72782.0,-11.37,-14.93,-14.75,0,*6C
1509440483.79,10055,6.81,72778.3,-11.37,-14.65,-14.47,0,*65
1509440485.03,10056,6.81,72756.8,-11.39,-14.83,-14.69,0,*6C
1509440486.28,10057,6.81,72786.5,-11.39,-15.11,-14.97,0,*66
1509440487.49,10058,6.81,72788.8,-11.39,-14.69,-14.65,0,*6A
1509440488.77,10059,6.81,72808.0,-11.37,-14.51,-14.37,0,*69
1509440489.99,10060,6.81,72818.0,-11.39,-14.29,-14.23,0,*67
1509440491.21,10061,6.81,72802.5,-11.39,-14.37,-14.15,0,*6C
1509440492.49,10062,6.81,72800.0,-11.37,-14.19,-14.01,0,*68
1509440493.76,10063,6.81,72820.0,-11.39,-14.05,-13.79,0,*62
1509440495.01,10064,6.81,72828.8,-11.39,-14.05,-13.93,0,*61
1509440496.25,10065,6.81,72842.8,-11.39,-14.79,-14.65,0,*65
1509440497.54,10066,6.81,72842.3,-11.37,-14.01,-13.79,0,*6D
1509440498.77,10067,6.81,72836.0,-11.39,-14.37,-14.29,0,*65
1509440500.03,10068,6.81,72844.3,-11.37,-13.79,-13.65,0,*66
1509440501.25,10069,6.81,72854.5,-11.39,-13.69,-13.51,0,*6F
1509440502.5,10070,6.81,72860.5,-11.37,-13.73,-13.65,0,*65
1509440503.8,10071,6.81,72854.8,-11.37,-14.01,-14.01,0,*63
1509440505.05,10072,6.81,72858.5,-11.37,-14.33,-14.23,0,*61
1509440506.33,10073,6.81,72844.0,-11.37,-14.47,-14.23,0,*63
1509440507.57,10074,6.81,72848.3,-11.37,-14.19,-14.19,0,*66
1509440508.82,10075,6.81,72844.3,-11.37,-14.19,-14.23,0,*6E
1509440510.05,10076,6.81,72840.8,-11.39,-15.67,-15.71,0,*6D
1509440511.32,10077,6.81,72828.8,-11.39,-15.85,-15.85,0,*6B
1509440512.54,10078,6.81,72832.5,-11.39,-16.03,-16.03,0,*64
1509440513.78,10079,6.81,72808.0,-11.43,-15.75,-15.75,0,*68
1509440515.07,10080,6.81,72792.8,-11.43,-15.43,-15.35,0,*6F
1509440516.31,10081,6.81,72798.3,-11.43,-15.71,-15.75,0,*6B
1509440517.58,10082,6.81,72804.8,-11.43,-15.57,-15.49,0,*63
1509440518.84,10083,6.81,72788.8,-11.45,-15.57,-15.57,0,*6B
1509440520.05,10084,6.81,72774.8,-11.45,-15.63,-15.63,0,*6C
1509440521.26,10085,6.81,72752.3,-11.45,-16.45,-16.45,0,*6D
1509440522.55,10086,6.81,72770.3,-11.47,-16.23,-16.27,0,*68
1509440523.77,10087,6.81,72778.0,-11.49,-16.55,-16.41,0,*66
1509440525.07,10088,6.81,72782.3,-11.51,-16.13,-16.17,0,*61
1509440526.33,10089,6.81,72780.0,-11.57,-16.23,-16.17,0,*65
1509440527.57,10090,6.81,72782.3,-11.57,-16.03,-16.13,0,*6B
1509440528.79,10091,6.81,72786.5,-11.57,-15.71,-15.75,0,*6F
1509440530.03,10092,6.88,72798.5,-11.57,-15.85,-15.71,0,*63
1509440531.29,10093,6.81,72798.3,-11.57,-15.57,-15.43,0,*6C
1509440532.56,10094,6.81,72790.3,-11.55,-14.79,-14.65,0,*61
1509440533.85,10095,6.81,72784.8,-11.59,-14.47,-14.43,0,*65
1509440535.11,10096,6.81,72776.8,-11.57,-14.97,-14.83,0,*69
1509440536.35,10097,6.81,72770.3,-11.57,-14.43,-14.29,0,*61
1509440537.63,10098,6.81,72780.5,-11.55,-14.11,-13.97,0,*69
1509440538.9,10099,6.81,72772.5,-11.55,-13.83,-13.55,0,*6A
1509440540.16,10100,6.81,72798.0,-11.55,-13.97,-13.93,0,*64
1509440541.41,10101,6.81,72792.8,-11.55,-14.37,-14.23,0,*64
1509440542.65,10102,6.81,72790.8,-11.49,-14.05,-13.93,0,*67
1509440543.88,10103,6.81,72796.5,-11.51,-14.11,-13.93,0,*6A
1509440545.14,10104,6.81,72762.0,-11.49,-14.01,-13.79,0,*61
1509440546.39,10105,6.81,72752.0,-11.49,-14.15,-14.05,0,*69
1509440547.67,10106,6.81,72780.5,-11.49,-14.47,-14.47,0,*6B
1509440548.93,10107,6.81,72794.3,-11.49,-14.79,-14.75,0,*66
1509440550.15,10108,6.81,72804.8,-11.49,-13.93,-13.79,0,*61
1509440551.43,10109,6.81,72806.0,-11.49,-14.05,-14.01,0,*60
1509440552.69,10110,6.81,72810.0,-11.47,-14.05,-13.93,0,*6A
1509440553.95,10111,6.81,72802.5,-11.47,-13.93,-13.79,0,*67
1509440555.19,10112,6.81,72792.5,-11.45,-14.43,-14.29,0,*6E
1509440556.46,10113,6.81,72816.3,-11.47,-14.47,-14.33,0,*62
1509440557.72,10114,6.81,72828.5,-11.45,-13.87,-13.83,0,*60
1509440558.97,10115,6.81,72842.5,-11.47,-14.15,-14.15,0,*67
1509440560.22,10116,6.81,72846.5,-11.45,-14.15,-13.97,0,*6B
1509440561.49,10117,6.81,72846.3,-11.45,-14.01,-13.87,0,*6E
1509440562.7,10118,6.88,72806.3,-11.45,-14.11,-14.11,0,*68
1509440563.94,10119,6.81,72810.3,-11.45,-14.75,-14.61,0,*6C
1509440565.18,10120,6.81,72800.3,-11.45,-14.47,-14.29,0,*6B
1509440566.43,10121,6.81,72806.3,-11.45,-14.11,-13.97,0,*6B
1509440567.69,10122,6.81,72832.0,-11.45,-14.01,-13.87,0,*68
1509440568.93,10123,6.81,72838.8,-11.45,-14.43,-14.19,0,*6F
1509440570.18,10124,6.81,72846.3,-11.45,-14.11,-14.01,0,*66
1509440571.39,10125,6.81,72838.0,-11.45,-14.33,-14.29,0,*6D
1509440572.64,10126,6.81,72838.0,-11.45,-14.15,-14.01,0,*60
1509440573.89,10127,6.81,72822.3,-11.45,-14.15,-14.01,0,*61
1509440575.14,10128,6.81,72820.5,-11.45,-14.11,-13.97,0,*62
1509440576.38,10129,6.81,72820.0,-11.43,-14.29,-14.15,0,*63
1509440577.63,10130,6.81,72818.3,-11.45,-14.15,-14.01,0,*67
1509440578.84,10131,6.81,72820.5,-11.45,-14.29,-14.15,0,*6C
1509440580.08,10132,6.81,72814.3,-11.43,-14.33,-14.29,0,*6D
1509440581.32,10133,6.81,72810.3,-11.43,-14.19,-14.15,0,*6B
1509440582.56,10134,6.81,72804.5,-11.43,-14.15,-14.11,0,*64
1509440583.83,10135,6.81,72810.5,-11.41,-14.05,-13.97,0,*6F
1509440585.1,10136,6.81,72816.8,-11.43,-14.11,-13.97,0,*6B
1509440586.32,10137,6.81,72818.0,-11.41,-14.19,-14.15,0,*6D
1509440587.6,10138,6.81,72800.0,-11.43,-14.15,-14.01,0,*69
1509440588.86,10139,6.81,72794.0,-11.43,-14.11,-13.97,0,*64
1509440590.16,10140,6.81,72802.0,-11.43,-13.83,-13.61,0,*6F
1509440591.4,10141,6.88,72796.3,-11.41,-13.51,-13.37,0,*60
1509440592.61,10142,6.81,72794.0,-11.41,-13.69,-13.55,0,*6C
1509440593.88,10143,6.81,72790.5,-11.41,-14.05,-13.97,0,*6E
1509440595.11,10144,6.81,72826.5,-11.41,-13.93,-13.83,0,*64
1509440596.32,10145,6.81,72850.3,-11.41,-14.29,-14.29,0,*64
1509440597.52,10146,6.88,72816.5,-11.41,-14.69,-14.65,0,*6B
1509440598.79,10147,6.81,72820.8,-11.41,-14.83,-14.79,0,*63
1509440600.02,10148,6.81,72814.5,-11.41,-14.65,-14.55,0,*6A
1509440601.27,10149,6.81,72834.8,-11.43,-14.75,-14.69,0,*67
1509440602.55,10150,6.81,72852.0,-11.43,-15.21,-15.21,0,*62
1509440603.77,10151,6.81,72826.8,-11.41,-14.29,-14.15,0,*6E
1509440605.06,10152,6.81,72820.0,-11.43,-14.01,-13.97,0,*68
1509440606.28,10153,6.81,72816.0,-11.41,-14.15,-14.15,0,*63
1509440607.56,10154,6.81,72814.5,-11.43,-14.15,-14.01,0,*63
1509440608.77,10155,6.81,72812.3,-11.41,-13.51,-13.43,0,*66
1509440609.98,10156,6.81,72812.3,-11.41,-13.19,-13.11,0,*6E
1509440611.22,10157,6.81,72822.0,-11.41,-13.29,-13.11,0,*6C
1509440612.47,10158,6.81,72826.8,-11.39,-13.29,-13.19,0,*64
1509440613.72,10159,6.81,72838.8,-11.39,-13.55,-13.33,0,*66
1509440614.95,10160,6.81,72868.8,-11.37,-13.15,-13.15,0,*62
1509440616.21,10161,6.81,72872.5,-11.37,-13.23,-13.19,0,*6A
1509440617.45,10162,6.81,72864.3,-11.35,-13.33,-13.23,0,*63
1509440618.69,10163,6.81,72866.0,-11.35,-13.01,-12.89,0,*62
1509440619.97,10164,6.81,72864.0,-11.35,-12.75,-12.75,0,*64
1509440621.21,10165,6.81,72872.8,-11.33,-12.97,-12.97,0,*63
1509440622.5,10166,6.81,72868.3,-11.33,-13.33,-13.29,0,*6B
1509440623.74,10167,6.81,72870.3,-11.33,-13.73,-13.73,0,*61
1509440625.0,10168,6.81,72860.8,-11.33,-13.61,-13.47,0,*6A
1509440626.27,10169,6.81,72874.0,-11.31,-14.01,-14.01,0,*6D
1509440627.55,10170,6.81,72868.3,-11.31,-14.05,-14.01,0,*61
1509440628.77,10171,6.81,72870.5,-11.31,-14.33,-14.19,0,*6C
1509440630.01,10172,6.81,72870.0,-11.31,-14.43,-14.33,0,*60
1509440631.29,10173,6.81,72874.3,-11.31,-14.01,-14.01,0,*66
1509440632.54,10174,6.81,72862.3,-11.31,-14.15,-14.05,0,*60
1509440633.84,10175,6.81,72862.3,-11.33,-14.05,-14.01,0,*66
1509440635.11,10176,6.81,72868.5,-11.33,-14.15,-14.05,0,*60
1509440636.41,10177,6.81,72870.8,-11.33,-14.05,-14.05,0,*60
1509440637.67,10178,6.81,72842.5,-11.33,-13.83,-13.69,0,*6B
1509440638.95,10179,6.81,72840.0,-11.33,-14.15,-14.05,0,*6F
1509440640.2,10180,6.81,72834.3,-11.35,-14.19,-14.05,0,*63
1509440641.47,10181,6.88,72830.3,-11.35,-14.05,-14.01,0,*6B
1509440642.74,10182,6.81,72824.3,-11.35,-13.87,-13.87,0,*6C
1509440644.0,10183,6.81,72824.8,-11.33,-13.83,-13.69,0,*6F
1509440645.29,10184,6.81,72824.0,-11.33,-13.87,-13.83,0,*68
1509440646.53,10185,6.81,72830.5,-11.33,-13.69,-13.69,0,*6D
1509440647.79,10186,6.81,72822.0,-11.33,-13.83,-13.69,0,*6A
1509440649.09,10187,6.81,72834.0,-11.33,-14.05,-14.05,0,*6F
1509440650.38,10188,6.81,72818.0,-11.33,-13.87,-13.83,0,*64
1509440651.59,10189,6.81,72808.5,-11.35,-15.07,-15.11,0,*60
1509440652.81,10190,6.81,72814.3,-11.35,-14.33,-14.33,0,*6F
1509440654.05,10191,6.81,72828.0,-11.35,-14.37,-14.51,0,*6E
1509440655.27,10192,6.81,72852.3,-11.35,-14.33,-14.19,0,*65
1509440656.52,10193,6.81,72840.3,-11.35,-15.75,-15.81,0,*67
1509440657.76,10194,6.81,72844.5,-11.39,-15.57,-15.67,0,*64
1509440659.0,10195,6.81,72842.0,-11.37,-14.65,-14.65,0,*68
1509440660.28,10196,6.81,72830.3,-11.39,-14.05,-13.83,0,*6C
1509440661.52,10197,6.81,72822.0,-11.37,-13.65,-13.51,0,*6D
1509440662.79,10198,6.81,72824.0,-11.37,-13.65,-13.61,0,*61
1509440664.05,10199,6.81,72836.5,-11.39,-13.83,-13.79,0,*6F
1509440665.32,10200,6.81,72856.8,-11.37,-13.79,-13.73,0,*6D
1509440666.62,10201,6.81,72860.8,-11.37,-14.01,-14.05,0,*62
1509440667.87,10202,6.81,72872.8,-11.37,-14.23,-14.19,0,*6C
1509440669.12,10203,6.81,72852.5,-11.37,-14.23,-14.19,0,*6D
1509440670.36,10204,6.81,72802.3,-11.37,-14.23,-14.11,0,*62
1509440671.64,10205,6.81,72820.0,-11.37,-14.11,-14.05,0,*67
1509440672.88,10206,6.81,72846.0,-11.37,-14.23,-14.19,0,*68
1509440674.13,10207,6.88,72828.0,-11.37,-14.11,-14.11,0,*60
1509440675.37,10208,6.81,72810.5,-11.37,-14.19,-14.11,0,*67
1509440676.67,10209,6.81,72810.8,-11.37,-14.75,-14.83,0,*67
1509440677.91,10210,6.81,72804.0,-11.37,-14.33,-14.19,0,*6E
1509440679.13,10211,6.81,72786.3,-11.39,-14.29,-14.23,0,*63
1509440680.36,10212,6.81,72776.8,-11.39,-14.23,-14.15,0,*6F
1509440681.58,10213,6.88,72794.3,-11.39,-14.29,-14.23,0,*61
1509440682.82,10214,6.81,72794.0,-11.39,-14.97,-15.11,0,*63
1509440684.1,10215,6.81,72792.0,-11.39,-14.83,-14.79,0,*68
1509440685.35,10216,6.88,72800.3,-11.41,-14.93,-14.83,0,*60
1509440686.64,10217,6.81,72822.3,-11.43,-14.75,-14.75,0,*62
1509440687.84,10218,6.81,72814.0,-11.41,-14.69,-14.65,0,*63
1509440689.1,10219,6.81,72798.8,-11.43,-14.43,-14.29,0,*60
1509440690.34,10220,6.81,72758.0,-11.43,-14.29,-14.19,0,*65
1509440691.6,10221,6.81,72788.3,-11.41,-14.55,-14.43,0,*62
1509440692.89,10222,6.81,72812.8,-11.43,-14.47,-14.43,0,*60
1509440694.12,10223,6.81,72814.8,-11.43,-14.33,-14.33,0,*65
1509440695.36,10224,6.81,72814.5,-11.43,-14.61,-14.61,0,*62
1509440696.58,10225,6.81,72824.0,-11.41,-13.93,-13.79,0,*65
1509440697.85,10226,6.81,72828.3,-11.43,-13.83,-13.73,0,*6F
1509440699.05,10227,6.81,72828.8,-11.41,-13.69,-13.69,0,*63
1509440700.29,10228,6.81,72820.5,-11.43,-14.15,-14.11,0,*6A
1509440701.55,10229,6.88,72818.8,-11.41,-14.93,-14.93,0,*6D
1509440702.82,10230,6.81,72830.8,-11.43,-14.11,-14.01,0,*66
1509440704.06,10231,6.81,72832.5,-11.43,-14.15,-14.11,0,*62
1509440705.35,10232,6.81,72822.8,-11.43,-14.55,-14.55,0,*65
1509440706.58,10233,6.81,72820.5,-11.43,-14.29,-14.29,0,*64
1509440707.81,10234,6.88,72820.0,-11.43,-13.73,-13.69,0,*68
1509440709.06,10235,6.81,72810.0,-11.43,-14.19,-14.19,0,*62
1509440710.32,10236,6.81,72810.8,-11.43,-13.69,-13.61,0,*69
1509440711.56,10237,6.81,72812.3,-11.43,-14.33,-14.33,0,*60
1509440712.79,10238,6.88,72828.5,-11.43,-14.11,-14.11,0,*6F
1509440714.08,10239,6.81,72820.0,-11.43,-13.97,-13.87,0,*6F
1509440715.35,10240,6.88,72850.3,-11.43,-14.11,-13.97,0,*69
1509440716.56,10241,6.88,72886.8,-11.41,-13.55,-13.51,0,*67
1509440717.82,10242,6.88,72884.5,-11.43,-14.01,-13.93,0,*6E
1509440719.08,10243,6.81,72880.5,-11.43,-14.69,-14.75,0,*6E
1509440720.34,10244,6.81,72890.8,-11.43,-15.21,-15.29,0,*6C
1509440721.61,10245,6.81,72866.0,-11.43,-14.83,-14.61,0,*69
1509440722.89,10246,6.88,72870.5,-11.43,-14.43,-14.43,0,*66
1509440724.13,10247,6.88,72880.3,-11.43,-14.19,-14.11,0,*6F
1509440725.37,10248,6.88,72876.5,-11.43,-14.19,-14.29,0,*6B
1509440726.61,10249,6.88,72876.3,-11.43,-14.33,-14.29,0,*62
1509440727.87,10250,6.88,72800.3,-11.43,-14.43,-14.15,0,*62
1509440729.12,10251,6.81,72768.3,-11.43,-14.69,-14.55,0,*6F
1509440730.39,10252,6.81,72782.8,-11.43,-14.83,-14.69,0,*67
1509440731.67,10253,6.81,72794.0,-11.43,-14.97,-15.01,0,*6C
1509440732.92,10254,6.88,72842.8,-11.47,-15.25,-15.25,0,*61
1509440734.13,10255,6.81,72846.0,-11.45,-14.89,-14.89,0,*62
1509440735.38,10256,6.88,72848.0,-11.47,-15.53,-15.49,0,*68
1509440736.62,10257,6.81,72850.8,-11.47,-14.65,-14.61,0,*66
1509440737.88,10258,6.81,72846.0,-11.47,-14.79,-14.65,0,*60
1509440739.12,10259,6.88,72870.8,-11.49,-14.89,-14.79,0,*6D
1509440740.42,10260,6.81,72836.5,-11.51,-14.83,-14.79,0,*64
1509440741.65,10261,6.81,72790.8,-11.47,-14.61,-14.37,0,*64
1509440742.91,10262,6.81,72784.3,-11.49,-15.21,-15.21,0,*6A
1509440744.14,10263,6.81,72806.5,-11.51,-15.71,-15.67,0,*65
1509440745.38,10264,6.81,72806.3,-11.51,-15.29,-15.11,0,*6E
1509440746.67,10265,6.81,72830.5,-11.55,-14.97,-14.79,0,*60
1509440747.96,10266,6.81,72810.8,-11.51,-14.83,-14.55,0,*6C
1509440749.23,10267,6.81,72764.5,-11.55,-14.55,-14.37,0,*66
1509440750.47,10268,6.88,72794.8,-11.55,-14.37,-14.19,0,*61
1509440751.71,10269,6.88,72834.3,-11.55,-14.29,-14.23,0,*66
1509440752.97,10270,6.81,72824.0,-11.55,-13.93,-13.83,0,*65
1509440754.24,10271,6.81,72820.0,-11.55,-14.05,-13.93,0,*6D
1509440755.5,10272,6.81,72826.3,-11.55,-13.97,-13.93,0,*62
1509440756.77,10273,6.88,72840.0,-11.55,-14.05,-13.93,0,*6F
1509440758.01,10274,6.81,72844.0,-11.51,-13.69,-13.51,0,*6F
1509440759.27,10275,6.88,72798.0,-11.49,-13.61,-13.33,0,*6B
1509440760.48,10276,6.88,72796.0,-11.49,-13.19,-13.15,0,*63
1509440761.75,10277,6.88,72822.3,-11.49,-14.05,-14.01,0,*6A
1509440762.99,10278,6.81,72812.0,-11.47,-13.93,-13.73,0,*61
1509440764.28,10279,6.88,72812.5,-11.47,-14.01,-13.87,0,*67
1509440765.55,10280,6.81,72820.3,-11.47,-14.01,-13.93,0,*64
1509440766.79,10281,6.81,72844.3,-11.47,-13.73,-13.65,0,*6E
1509440768.02,10282,6.81,72858.3,-11.47,-14.61,-14.61,0,*6A
1509440769.26,10283,6.81,72838.0,-11.47,-14.61,-14.37,0,*68
1509440770.53,10284,6.81,72858.8,-11.47,-14.89,-14.79,0,*63
1509440771.79,10285,6.81,72842.5,-11.47,-14.65,-14.51,0,*6A
1509440773.08,10286,6.81,72838.5,-11.47,-14.75,-14.51,0,*68
1509440774.31,10287,6.81,72820.8,-11.49,-14.65,-14.51,0,*66
1509440775.55,10288,6.88,72832.5,-11.49,-14.65,-14.51,0,*69
1509440776.79,10289,6.88,72834.8,-11.47,-14.61,-14.61,0,*61
1509440778.04,10290,6.81,72844.5,-11.51,-14.69,-14.55,0,*61
1509440779.27,10291,6.81,72840.3,-11.51,-14.69,-14.37,0,*64
1509440780.55,10292,6.88,72856.3,-11.51,-14.55,-14.43,0,*6B
1509440781.82,10293,6.81,72850.8,-11.51,-14.19,-14.05,0,*60
1509440783.08,10294,6.81,72846.8,-11.51,-14.05,-13.93,0,*62
1509440784.33,10295,6.81,72812.3,-11.49,-14.15,-14.01,0,*67
1509440785.6,10296,6.81,72842.5,-11.49,-14.05,-14.05,0,*61
1509440786.83,10297,6.88,72848.5,-11.49,-14.23,-14.15,0,*65
1509440788.03,10298,6.81,72834.8,-11.49,-13.93,-13.73,0,*61
1509440789.26,10299,6.81,72818.8,-11.49,-13.61,-13.47,0,*6A
1509440790.53,10300,6.81,72822.3,-11.47,-13.87,-13.65,0,*6D
1509440791.82,10301,6.81,72828.5,-11.47,-13.61,-13.33,0,*67
1509440793.08,10302,6.81,72804.8,-11.47,-14.79,-14.61,0,*6A
1509440794.32,10303,6.81,72770.3,-11.47,-14.65,-14.37,0,*65
1509440795.59,10304,6.81,72766.3,-11.47,-14.47,-14.23,0,*67
1509440796.86,10305,6.88,72766.3,-11.47,-14.23,-14.05,0,*60
1509440798.1,10306,6.81,72758.5,-11.45,-13.87,-13.65,0,*69
1509440799.36,10307,6.81,72758.5,-11.47,-13.15,-13.01,0,*63
1509440800.61,10308,6.81,72770.8,-11.45,-12.83,-12.61,0,*67
1509440801.88,10309,6.81,72798.5,-11.45,-12.61,-12.35,0,*6B
1509440803.14,10310,6.81,72808.3,-11.43,-12.53,-12.43,0,*65
1509440804.36,10311,6.88,72820.8,-11.41,-12.97,-12.93,0,*63
1509440805.57,10312,6.81,72820.3,-11.41,-13.07,-12.93,0,*68
1509440806.81,10313,6.81,72832.0,-11.39,-12.57,-12.39,0,*62
1509440808.08,10314,6.81,72820.3,-11.37,-12.65,-12.39,0,*6A
1509440809.38,10315,6.88,72810.5,-11.37,-12.79,-12.75,0,*6E
1509440810.62,10316,6.81,72810.0,-11.33,-12.97,-12.89,0,*6A
1509440811.87,10317,6.88,72812.8,-11.35,-12.93,-12.79,0,*66
1509440813.14,10318,6.81,72812.0,-11.33,-12.97,-12.75,0,*67
1509440814.38,10319,6.81,72814.8,-11.31,-13.33,-13.15,0,*6C
1509440815.62,10320,6.81,72832.8,-11.33,-13.15,-12.97,0,*6B
1509440816.85,10321,6.81,72850.8,-11.33,-13.55,-13.43,0,*66
1509440818.16,10322,6.81,72830.0,-11.33,-14.05,-13.97,0,*6E
1509440819.43,10323,6.81,72834.0,-11.33,-14.19,-14.01,0,*6A
1509440820.71,10324,6.81,72824.3,-11.33,-14.15,-13.97,0,*69
1509440822.0,10325,6.81,72824.8,-11.33,-13.97,-13.87,0,*64
1509440823.24,10326,6.81,72816.0,-11.33,-13.69,-13.55,0,*69
1509440824.48,10327,6.81,72828.0,-11.35,-13.79,-13.73,0,*6B
1509440825.76,10328,6.81,72824.3,-11.35,-14.01,-14.01,0,*6E
1509440827.03,10329,6.81,72814.3,-11.33,-14.15,-14.01,0,*6C
1509440828.28,10330,6.81,72792.3,-11.35,-14.19,-14.05,0,*6A
1509440829.5,10331,6.81,72796.0,-11.35,-14.23,-14.11,0,*67
1509440830.75,10332,6.81,72806.3,-11.35,-14.19,-14.01,0,*6C
1509440831.99,10333,6.81,72814.0,-11.35,-14.93,-14.89,0,*6F
1509440833.25,10334,6.81,72808.8,-11.39,-15.53,-15.39,0,*63
1509440834.49,10335,6.81,72804.3,-11.39,-15.07,-14.93,0,*62
1509440835.71,10336,6.81,72800.8,-11.41,-15.25,-15.29,0,*6E
1509440836.93,10337,6.81,72814.3,-11.41,-15.53,-15.53,0,*63
1509440838.19,10338,6.88,72818.5,-11.43,-15.29,-15.21,0,*66
1509440839.47,10339,6.81,72834.3,-11.43,-15.35,-15.35,0,*6F
1509440840.74,10340,6.81,72832.3,-11.45,-15.35,-15.21,0,*62
1509440842.0,10341,6.81,72810.8,-11.47,-15.81,-15.75,0,*6F
1509440843.27,10342,6.81,72786.5,-11.47,-15.49,-15.39,0,*60
1509440844.54,10343,6.81,72808.3,-11.49,-15.89,-15.89,0,*68
1509440845.8,10344,6.88,72802.3,-11.51,-15.71,-15.57,0,*62
1509440847.04,10345,6.88,72804.5,-11.49,-15.49,-15.39,0,*69
1509440848.29,10346,6.81,72792.0,-11.55,-15.71,-15.71,0,*60
1509440849.55,10347,6.88,72786.3,-11.57,-16.23,-16.23,0,*63
1509440850.75,10348,6.81,72784.3,-11.57,-15.99,-15.99,0,*6C
1509440852.05,10349,6.88,72760.3,-11.59,-15.43,-15.35,0,*62
1509440853.29,10350,6.81,72748.5,-11.61,-15.49,-15.39,0,*67
1509440854.56,10351,6.81,72738.0,-11.59,-15.57,-15.49,0,*65
1509440855.77,10352,6.81,72750.0,-11.61,-15.75,-15.67,0,*61
1509440857.05,10353,6.81,72766.0,-11.65,-15.39,-15.39,0,*67
1509440858.3,10354,6.81,72786.8,-11.65,-15.39,-15.25,0,*6D
1509440859.56,10355,6.81,72782.8,-11.67,-15.21,-15.11,0,*60
1509440860.82,10356,6.81,72764.8,-11.67,-15.25,-15.21,0,*64
1509440862.11,10357,6.81,72772.3,-11.67,-14.97,-14.97,0,*61
1509440863.38,10358,6.81,72768.3,-11.67,-15.53,-15.39,0,*62
1509440864.65,10359,6.81,72758.5,-11.67,-15.07,-14.97,0,*67
1509440865.89,10360,6.81,72776.5,-11.67,-14.37,-14.23,0,*60
1509440867.15,10361,6.81,72786.5,-11.69,-14.23,-14.01,0,*6A
1509440868.37,10362,6.81,72792.3,-11.69,-14.23,-14.15,0,*6C
1509440869.64,10363,6.81,72824.0,-11.69,-14.47,-14.43,0,*6C
1509440870.91,10364,6.81,72838.0,-11.69,-14.47,-14.43,0,*6B
1509440872.2,10365,6.88,72854.0,-11.67,-15.21,-14.97,0,*6C
1509440873.47,10366,6.88,72850.8,-11.67,-14.51,-14.33,0,*67
1509440874.73,10367,6.81,72856.8,-11.67,-15.07,-14.93,0,*6E
1509440875.99,10368,6.88,72862.5,-11.67,-15.11,-14.93,0,*66
1509440877.28,10369,6.88,72866.0,-11.67,-14.97,-14.79,0,*6C
1509440878.54,10370,6.88,72860.0,-11.67,-14.55,-14.37,0,*60
1509440879.76,10371,6.88,72860.3,-11.65,-14.33,-14.19,0,*6F
1509440881.01,10372,6.81,72858.0,-11.65,-14.23,-13.97,0,*6C
1509440882.22,10373,6.88,72862.0,-11.61,-14.19,-13.93,0,*64
1509440883.46,10374,6.88,72852.8,-11.61,-13.93,-13.61,0,*6B
1509440884.72,10375,6.81,72838.8,-11.59,-13.29,-13.15,0,*63
1509440885.99,10376,6.88,72832.8,-11.59,-13.37,-13.11,0,*6B
1509440887.23,10377,6.81,72834.8,-11.59,-13.15,-12.89,0,*6A
1509440888.49,10378,6.88,72842.8,-11.55,-13.33,-13.11,0,*6D
1509440889.76,10379,6.88,72842.8,-11.55,-13.33,-13.19,0,*64
1509440891.0,10380,6.81,72838.0,-11.51,-14.19,-14.19,0,*6E
1509440892.3,10381,6.81,72814.0,-11.51,-14.05,-13.97,0,*63
1509440893.55,10382,6.88,72784.3,-11.51,-14.65,-14.43,0,*68
1509440894.76,10383,6.81,72754.8,-11.49,-13.65,-13.47,0,*64
1509440896.0,10384,6.81,72744.8,-11.51,-13.43,-13.19,0,*65
1509440897.22,10385,6.81,72756.5,-11.49,-14.15,-14.15,0,*62
1509440898.49,10386,6.81,72750.5,-11.51,-14.83,-14.69,0,*6C
1509440899.77,10387,6.81,72776.5,-11.51,-13.97,-13.79,0,*69
1509440901.04,10388,6.81,72780.5,-11.49,-13.79,-13.61,0,*66